Orbital Elements at Epoch 2459200.5 (2020-Dec-17.0) TDB
Reference: JPL 23 (heliocentric ecliptic J2000)
Element | Value | Uncertainty (1-sigma) | Units |
e | .1374855909699842 | 3.7593e-08 | |
a | 2.548024940305643 | 1.217e-08 | au |
q | 2.197708225581463 | 9.6913e-08 | au |
i | 4.786814394896997 | 5.4968e-06 | deg |
node | 169.4572964163663 | 3.9005e-05 | deg |
peri | 144.1781104856261 | 4.4099e-05 | deg |
M | 228.7929612614326 | 1.9485e-05 | deg |
tp | 2459741.950266548097 (2022-Jun-11.45026655) | 8.0898e-05 | TDB |
period | 1485.607005777343 4.07 | 1.0644e-05 2.914e-08 | d yr |
n | .2423251900401682 | 1.7361e-09 | deg/d |
Q | 2.898341655029822 | 1.3844e-08 | au |
|
| | Orbit Determination Parameters
Additional Information
|